Total_Precipitation_Accumulation
0.00 0.00 0.00 0.00 0.00 0.00 0.00 0.00 0.00 0.00 0.00 0.00 0.00 0.00 0.00 0.00 0.00 0.00 0.00 0.00 0.00 0.00 0.00 0.00 0.00 0.00 0.00 0.00 0.00 0.00 0.00 0.03 0.02 0.04 0.11 0.02 0.04 0.03 0.01 0.01 0.03 0.07 0.08 0.06 0.04 0.03 0.05 0.03 0.02 0.06 0.01 0.01 0.00 0.00 0.00 0.00 0.00 0.00 0.00 0.00 0.00 0.00 0.00 0.00 0.00 0.00 0.00 0.00 0.00 0.00 0.00 0.00 0.00 0.00 0.00 0.00 0.00 0.00 0.01 0.01 0.01 0.02 0.05 0.08 0.04 0.06 0.02 0.01 0.01 0.01 0.01 0.01 0.01 0.01 0.00 0.00 0.01
0.00 0.00 0.00 0.00 0.00 0.00 0.00 0.00 0.00 0.00 0.00 0.00 0.00 0.00 0.00 0.00 0.00 0.00 0.00 0.00 0.00 0.00 0.00 0.00 0.00 0.00 0.00 0.00 0.00 0.00 0.00 0.01 0.00 0.02 0.06 0.04 0.04 0.04 0.11 0.04 0.01 0.07 0.13 0.09 0.05 0.04 0.08 0.08 0.04 0.04 0.02 0.02 0.01 0.00 0.00 0.00 0.00 0.00 0.00 0.00 0.00 0.01 0.07 0.00 0.00 0.00 0.00 0.00 0.00 0.00 0.00 0.00 0.00 0.00 0.00 0.00 0.00 0.01 0.01 0.01 0.04 0.03 0.06 0.05 0.05 0.08 0.02 0.04 0.01 0.01 0.01 0.02 0.02 0.03 0.02 0.01 0.02
0.00 0.00 0.00 0.00 0.00 0.00 0.00 0.00 0.00 0.00 0.00 0.00 0.00 0.00 0.00 0.00 0.00 0.00 0.00 0.00 0.00 0.00 0.00 0.00 0.00 0.00 0.00 0.00 0.00 0.00 0.04 0.02 0.01 0.02 0.06 0.04 0.05 0.15 0.05 0.18 0.10 0.17 0.28 0.22 0.04 0.07 0.08 0.07 0.04 0.07 0.04 0.02 0.01 0.00 0.01 0.00 0.00 0.00 0.00 0.00 0.00 0.00 0.00 0.02 0.01 0.00 0.00 0.00 0.00 0.00 0.00 0.00 0.00 0.00 0.00 0.00 0.00 0.00 0.00 0.02 0.03 0.06 0.10 0.09 0.02 0.10 0.07 0.02 0.02 0.02 0.03 0.05 0.03 0.02 0.02 0.01 0.01
0.00 0.00 0.00 0.00 0.00 0.00 0.00 0.00 0.00 0.00 0.00 0.00 0.00 0.00 0.00 0.00 0.00 0.00 0.00 0.00 0.00 0.00 0.00 0.00 0.00 0.00 0.00 0.00 0.02 0.00 0.01 0.02 0.01 0.02 0.06 0.05 0.02 0.06 0.04 0.17 0.17 0.31 0.39 0.18 0.06 0.08 0.07 0.06 0.04 0.06 0.06 0.02 0.01 0.01 0.01 0.01 0.01 0.00 0.00 0.00 0.00 0.00 0.00 0.00 0.01 0.00 0.00 0.00 0.00 0.00 0.00 0.00 0.01 0.01 0.01 0.01 0.00 0.04 0.03 0.01 0.01 0.02 0.02 0.05 0.02 0.04 0.04 0.02 0.02 0.05 0.03 0.02 0.02 0.02 0.02 0.01 0.01
0.00 0.00 0.00 0.00 0.00 0.00 0.00 0.00 0.00 0.00 0.00 0.00 0.00 0.00 0.00 0.00 0.00 0.00 0.00 0.00 0.00 0.00 0.00 0.00 0.00 0.00 0.00 0.01 0.00 0.02 0.03 0.02 0.02 0.02 0.01 0.02 0.02 0.05 0.26 0.22 0.23 0.30 0.14 0.18 0.10 0.06 0.07 0.04 0.04 0.06 0.06 0.03 0.01 0.01 0.01 0.00 0.00 0.00 0.00 0.00 0.00 0.00 0.00 0.00 0.00 0.00 0.00 0.00 0.00 0.00 0.00 0.00 0.00 0.03 0.01 0.00 0.00 0.03 0.01 0.02 0.01 0.00 0.00 0.00 0.03 0.00 0.00 0.00 0.01 0.02 0.01 0.04 0.04 0.02 0.02 0.02 0.02
0.00 0.00 0.00 0.00 0.00 0.00 0.00 0.00 0.00 0.00 0.00 0.00 0.00 0.00 0.00 0.00 0.00 0.00 0.00 0.00 0.00 0.00 0.00 0.00 0.00 0.00 0.01 0.04 0.01 0.03 0.03 0.09 0.02 0.02 0.02 0.08 0.04 0.14 0.36 0.48 0.38 0.33 0.09 0.12 0.09 0.11 0.11 0.02 0.03 0.04 0.06 0.06 0.02 0.02 0.01 0.01 0.01 0.00 0.00 0.00 0.00 0.00 0.00 0.00 0.00 0.00 0.00 0.00 0.00 0.00 0.00 0.00 0.01 0.03 0.02 0.01 0.00 0.01 0.03 0.00 0.00 0.00 0.01 0.02 0.01 0.00 0.00 0.00 0.00 0.00 0.06 0.06 0.03 0.02 0.02 0.01 0.02
0.00 0.00 0.00 0.00 0.00 0.00 0.00 0.00 0.00 0.00 0.00 0.00 0.00 0.00 0.00 0.00 0.00 0.00 0.00 0.00 0.00 0.00 0.00 0.00 0.00 0.00 0.02 0.01 0.00 0.02 0.01 0.03 0.04 0.04 0.02 0.03 0.24 0.35 0.40 0.43 0.29 0.12 0.08 0.07 0.08 0.12 0.05 0.03 0.03 0.04 0.05 0.05 0.11 0.03 0.01 0.02 0.01 0.00 0.01 0.01 0.01 0.00 0.00 0.00 0.00 0.01 0.01 0.00 0.00 0.00 0.00 0.00 0.00 0.00 0.01 0.03 0.00 0.01 0.01 0.00 0.00 0.00 0.00 0.00 0.01 0.03 0.01 0.00 0.00 0.00 0.00 0.08 0.01 0.02 0.01 0.01 0.00
0.00 0.00 0.00 0.00 0.00 0.00 0.00 0.00 0.00 0.00 0.00 0.00 0.00 0.00 0.00 0.00 0.00 0.00 0.00 0.00 0.00 0.00 0.00 0.00 0.00 0.01 0.35 0.01 0.12 0.01 0.02 0.01 0.07 0.14 0.01 0.04 0.22 0.64 0.63 0.36 0.18 0.05 0.07 0.07 0.07 0.05 0.08 0.02 0.03 0.02 0.03 0.03 0.17 0.16 0.07 0.06 0.03 0.01 0.01 0.02 0.01 0.01 0.02 0.01 0.01 0.01 0.01 0.01 0.01 0.00 0.01 0.00 0.00 0.02 0.01 0.02 0.03 0.03 0.01 0.00 0.00 0.00 0.00 0.00 0.00 0.03 0.03 0.01 0.01 0.01 0.02 0.03 0.02 0.00 0.00 0.00 0.00
0.00 0.00 0.00 0.00 0.00 0.00 0.00 0.00 0.00 0.00 0.00 0.00 0.00 0.00 0.00 0.00 0.00 0.00 0.00 0.00 0.00 0.00 0.00 0.00 0.00 0.05 0.09 0.06 0.08 0.05 0.09 0.09 0.04 0.23 0.13 0.11 0.35 0.88 0.96 0.85 0.38 0.04 0.06 0.18 0.11 0.05 0.04 0.03 0.02 0.01 0.02 0.02 0.04 0.13 0.10 0.14 0.05 0.04 0.02 0.03 0.03 0.06 0.09 0.03 0.02 0.01 0.02 0.01 0.01 0.01 0.01 0.01 0.00 0.00 0.01 0.02 0.03 0.02 0.01 0.02 0.01 0.02 0.01 0.00 0.02 0.04 0.01 0.02 0.02 0.05 0.05 0.03 0.02 0.01 0.00 0.00 0.00
0.00 0.00 0.00 0.00 0.00 0.00 0.00 0.00 0.00 0.00 0.00 0.00 0.00 0.00 0.00 0.00 0.00 0.00 0.00 0.00 0.00 0.00 0.00 0.00 0.00 0.01 0.04 0.22 0.07 0.19 0.13 0.07 0.19 0.27 0.02 0.22 0.73 1.05 0.62 0.22 0.50 0.29 0.53 0.33 0.19 0.10 0.07 0.10 0.01 0.01 0.01 0.01 0.03 0.09 0.03 0.02 0.03 0.03 0.02 0.03 0.08 0.04 0.05 0.11 0.01 0.01 0.01 0.02 0.01 0.00 0.01 0.01 0.00 0.00 0.02 0.04 0.09 0.05 0.03 0.01 0.00 0.02 0.01 0.01 0.04 0.08 0.02 0.02 0.07 0.03 0.05 0.09 0.05 0.02 0.01 0.00 0.00
0.00 0.00 0.00 0.00 0.00 0.00 0.00 0.00 0.00 0.00 0.00 0.00 0.00 0.00 0.00 0.00 0.00 0.00 0.00 0.00 0.00 0.00 0.00 0.00 0.00 0.00 0.02 0.07 0.29 0.19 0.26 0.25 0.42 0.28 0.12 0.35 0.85 0.67 0.44 0.22 0.32 0.68 0.70 0.55 0.36 0.23 0.14 0.08 0.09 0.02 0.01 0.01 0.03 0.10 0.11 0.05 0.01 0.01 0.01 0.00 0.01 0.02 0.02 0.03 0.01 0.00 0.01 0.00 0.00 0.00 0.00 0.00 0.00 0.00 0.01 0.05 0.09 0.05 0.04 0.02 0.01 0.03 0.01 0.01 0.01 0.02 0.02 0.02 0.05 0.03 0.10 0.00 0.01 0.01 0.00 0.00 0.00
0.00 0.00 0.00 0.00 0.00 0.00 0.00 0.00 0.00 0.00 0.00 0.00 0.00 0.00 0.00 0.00 0.00 0.00 0.00 0.00 0.00 0.00 0.00 0.00 0.06 0.00 0.07 0.05 0.11 0.24 0.42 0.23 0.48 0.18 0.43 0.36 0.33 0.27 0.26 0.14 0.40 0.55 0.40 0.30 0.23 0.19 0.16 0.10 0.08 0.11 0.01 0.01 0.04 0.04 0.10 0.19 0.11 0.02 0.01 0.01 0.01 0.00 0.01 0.00 0.00 0.00 0.00 0.00 0.00 0.01 0.00 0.01 0.01 0.02 0.01 0.01 0.02 0.02 0.05 0.02 0.03 0.04 0.03 0.01 0.00 0.02 0.00 0.02 0.01 0.01 0.04 0.01 0.00 0.00 0.00 0.00 0.00
0.00 0.00 0.00 0.00 0.00 0.00 0.00 0.00 0.00 0.00 0.00 0.00 0.00 0.00 0.00 0.00 0.00 0.00 0.00 0.00 0.00 0.00 0.00 0.00 0.00 0.01 0.32 0.04 0.09 0.30 0.39 0.28 0.41 0.24 0.45 0.45 0.04 0.47 0.43 0.42 0.34 0.29 0.17 0.10 0.11 0.07 0.06 0.05 0.07 0.05 0.09 0.03 0.03 0.09 0.09 0.28 0.26 0.17 0.19 0.11 0.02 0.01 0.01 0.01 0.00 0.00 0.01 0.00 0.01 0.01 0.05 0.03 0.08 0.03 0.05 0.04 0.03 0.04 0.05 0.00 0.01 0.01 0.04 0.00 0.00 0.00 0.01 0.01 0.03 0.03 0.03 0.01 0.00 0.00 0.00 0.00 0.00
0.00 0.00 0.00 0.00 0.00 0.00 0.00 0.00 0.00 0.00 0.00 0.00 0.00 0.00 0.00 0.00 0.00 0.00 0.00 0.00 0.00 0.00 0.00 0.00 0.00 0.01 0.08 0.11 0.19 0.33 0.44 0.13 0.05 0.06 0.08 0.27 0.34 0.35 0.73 0.66 0.28 0.29 0.09 0.08 0.09 0.07 0.03 0.05 0.09 0.07 0.07 0.09 0.10 0.24 0.38 0.43 0.35 0.14 0.14 0.10 0.07 0.03 0.08 0.06 0.03 0.02 0.01 0.02 0.01 0.01 0.06 0.04 0.03 0.03 0.05 0.01 0.06 0.02 0.00 0.00 0.00 0.01 0.02 0.01 0.00 0.00 0.01 0.01 0.02 0.04 0.04 0.00 0.00 0.00 0.00 0.00 0.00
0.00 0.00 0.00 0.00 0.00 0.00 0.00 0.00 0.00 0.00 0.00 0.00 0.00 0.00 0.00 0.00 0.00 0.00 0.00 0.00 0.00 0.00 0.00 0.00 0.00 0.00 0.27 0.02 0.05 0.18 0.23 0.10 0.12 0.15 0.02 0.03 0.11 0.29 0.30 0.35 0.46 0.13 0.13 0.05 0.08 0.12 0.08 0.08 0.09 0.06 0.10 0.09 0.10 0.11 0.22 0.26 0.25 0.27 0.16 0.15 0.09 0.06 0.20 0.12 0.05 0.06 0.08 0.05 0.03 0.04 0.04 0.03 0.07 0.08 0.07 0.03 0.00 0.00 0.00 0.00 0.00 0.01 0.01 0.00 0.01 0.01 0.00 0.01 0.01 0.01 0.03 0.00 0.00 0.00 0.00 0.00 0.00
0.00 0.00 0.00 0.00 0.00 0.00 0.00 0.00 0.00 0.00 0.00 0.00 0.00 0.00 0.00 0.00 0.00 0.00 0.00 0.00 0.00 0.00 0.00 0.00 0.00 0.02 0.06 0.01 0.05 0.14 0.16 0.17 0.09 0.12 0.08 0.11 0.13 0.08 0.18 0.27 0.23 0.33 0.07 0.08 0.06 0.04 0.05 0.06 0.07 0.08 0.09 0.04 0.10 0.10 0.14 0.10 0.15 0.18 0.25 0.11 0.04 0.13 0.20 0.14 0.12 0.12 0.17 0.16 0.12 0.09 0.10 0.05 0.10 0.09 0.26 0.13 0.05 0.03 0.00 0.03 0.00 0.04 0.04 0.02 0.02 0.02 0.01 0.02 0.01 0.01 0.00 0.00 0.00 0.00 0.00 0.00 0.00
0.00 0.00 0.00 0.00 0.00 0.00 0.00 0.00 0.00 0.00 0.00 0.00 0.00 0.00 0.00 0.00 0.00 0.00 0.00 0.00 0.00 0.00 0.00 0.00 0.01 0.00 0.00 0.01 0.01 0.08 0.13 0.05 0.05 0.04 0.03 0.08 0.07 0.09 0.14 0.12 0.05 0.08 0.06 0.03 0.05 0.04 0.07 0.07 0.10 0.10 0.10 0.05 0.07 0.09 0.07 0.09 0.04 0.10 0.07 0.13 0.16 0.17 0.15 0.17 0.18 0.20 0.15 0.12 0.07 0.12 0.06 0.24 0.29 0.49 0.12 0.32 0.12 0.13 0.02 0.00 0.01 0.03 0.02 0.03 0.02 0.07 0.05 0.03 0.01 0.02 0.00 0.00 0.00 0.00 0.00 0.00 0.00
0.00 0.00 0.00 0.00 0.00 0.00 0.00 0.00 0.00 0.00 0.00 0.00 0.00 0.00 0.00 0.00 0.00 0.00 0.00 0.00 0.00 0.00 0.00 0.00 0.00 0.00 0.05 0.02 0.05 0.04 0.06 0.06 0.05 0.06 0.07 0.07 0.08 0.12 0.10 0.10 0.04 0.10 0.06 0.08 0.10 0.10 0.12 0.19 0.08 0.14 0.09 0.11 0.07 0.11 0.13 0.08 0.09 0.05 0.08 0.14 0.12 0.12 0.13 0.12 0.27 0.23 0.57 0.19 0.13 0.10 0.16 0.21 0.54 0.86 0.34 0.52 0.36 0.14 0.15 0.02 0.04 0.03 0.02 0.02 0.03 0.02 0.01 0.04 0.04 0.01 0.00 0.00 0.00 0.00 0.00 0.00 0.00
0.00 0.00 0.00 0.00 0.00 0.00 0.00 0.00 0.00 0.00 0.00 0.00 0.00 0.00 0.00 0.00 0.00 0.00 0.00 0.00 0.00 0.00 0.00 0.01 0.00 0.02 0.06 0.05 0.07 0.08 0.04 0.09 0.05 0.05 0.06 0.06 0.12 0.06 0.09 0.06 0.13 0.13 0.18 0.08 0.06 0.08 0.01 0.01 0.07 0.07 0.12 0.13 0.12 0.09 0.09 0.09 0.07 0.08 0.18 0.11 0.08 0.19 0.32 0.22 0.15 0.29 0.32 0.33 0.29 0.12 0.24 0.33 0.35 1.09 0.55 0.31 0.64 0.44 0.15 0.03 0.03 0.04 0.05 0.02 0.01 0.00 0.02 0.02 0.06 0.03 0.00 0.00 0.00 0.00 0.00 0.00 0.00
0.00 0.00 0.00 0.00 0.00 0.00 0.00 0.00 0.00 0.00 0.00 0.00 0.00 0.00 0.00 0.00 0.00 0.00 0.00 0.00 0.00 0.00 0.00 0.00 0.00 0.07 0.04 0.09 0.06 0.08 0.14 0.07 0.07 0.06 0.04 0.05 0.08 0.06 0.04 0.07 0.05 0.02 0.02 0.01 0.01 0.01 0.01 0.00 0.02 0.06 0.10 0.12 0.11 0.11 0.09 0.09 0.11 0.15 0.08 0.09 0.08 0.08 0.10 0.13 0.14 0.25 0.25 0.44 0.48 0.32 0.15 0.53 0.77 0.99 0.73 0.73 0.41 0.35 0.33 0.08 0.06 0.06 0.07 0.06 0.04 0.03 0.03 0.01 0.02 0.02 0.01 0.00 0.00 0.00 0.00 0.00 0.00
0.00 0.00 0.00 0.00 0.00 0.00 0.00 0.00 0.00 0.00 0.00 0.00 0.00 0.00 0.00 0.00 0.00 0.00 0.00 0.00 0.00 0.00 0.00 0.00 0.01 0.02 0.05 0.10 0.08 0.11 0.14 0.07 0.09 0.15 0.05 0.10 0.09 0.21 0.09 0.05 0.03 0.02 0.01 0.00 0.01 0.01 0.00 0.00 0.01 0.01 0.04 0.07 0.09 0.13 0.10 0.07 0.11 0.12 0.12 0.09 0.10 0.12 0.10 0.15 0.27 0.20 0.55 0.57 0.26 0.52 0.40 0.48 0.36 0.26 0.20 0.36 0.30 0.22 0.28 0.33 0.12 0.05 0.03 0.07 0.04 0.03 0.05 0.11 0.06 0.09 0.10 0.01 0.00 0.01 0.01 0.01 0.00
0.00 0.00 0.00 0.00 0.00 0.00 0.00 0.00 0.00 0.00 0.00 0.00 0.00 0.00 0.00 0.00 0.00 0.00 0.00 0.00 0.00 0.00 0.00 0.01 0.00 0.00 0.05 0.09 0.03 0.08 0.19 0.22 0.21 0.18 0.18 0.33 0.17 0.15 0.29 0.18 0.12 0.04 0.01 0.00 0.00 0.01 0.01 0.01 0.01 0.00 0.01 0.02 0.06 0.10 0.14 0.10 0.15 0.12 0.10 0.17 0.09 0.05 0.09 0.08 0.10 0.66 0.37 0.47 0.40 0.62 0.68 0.45 0.55 0.31 0.66 0.36 0.26 0.41 0.46 0.42 0.10 0.06 0.03 0.02 0.03 0.01 0.04 0.12 0.04 0.04 0.04 0.03 0.02 0.01 0.04 0.02 0.01
0.00 0.00 0.00 0.00 0.00 0.00 0.00 0.00 0.00 0.00 0.00 0.00 0.00 0.00 0.00 0.00 0.00 0.00 0.00 0.00 0.00 0.00 0.00 0.00 0.00 0.02 0.05 0.08 0.10 0.10 0.07 0.34 0.55 0.29 0.88 0.67 0.48 0.53 0.42 0.22 0.02 0.03 0.01 0.01 0.00 0.01 0.01 0.00 0.01 0.00 0.01 0.01 0.01 0.08 0.05 0.10 0.14 0.13 0.13 0.08 0.12 0.10 0.10 0.11 0.19 0.39 0.50 0.29 0.38 0.54 0.43 0.41 0.48 0.64 0.43 0.41 0.16 0.29 0.17 0.23 0.13 0.07 0.10 0.13 0.05 0.02 0.03 0.04 0.07 0.07 0.05 0.04 0.02 0.01 0.02 0.04 0.04
0.00 0.00 0.00 0.00 0.00 0.00 0.00 0.00 0.00 0.00 0.00 0.00 0.00 0.00 0.00 0.00 0.00 0.00 0.00 0.00 0.00 0.00 0.01 0.01 0.05 0.05 0.03 0.04 0.08 0.22 0.15 0.07 0.10 0.85 0.68 0.87 0.77 0.62 0.59 0.56 0.21 0.18 0.03 0.00 0.02 0.00 0.00 0.01 0.01 0.00 0.01 0.00 0.00 0.01 0.02 0.01 0.07 0.11 0.11 0.14 0.08 0.19 0.17 0.20 0.28 0.33 0.43 0.22 0.48 0.29 0.34 0.25 0.39 0.27 0.26 0.29 0.35 0.23 0.15 0.11 0.17 0.12 0.12 0.15 0.14 0.03 0.04 0.08 0.07 0.06 0.05 0.11 0.01 0.01 0.01 0.01 0.05
0.00 0.00 0.00 0.00 0.00 0.00 0.00 0.00 0.00 0.00 0.00 0.00 0.00 0.00 0.00 0.00 0.00 0.00 0.00 0.00 0.00 0.00 0.00 0.01 0.01 0.03 0.11 0.04 0.14 0.34 0.32 0.36 0.10 0.24 0.50 0.44 0.37 0.27 0.30 0.66 0.34 0.23 0.16 0.15 0.10 0.32 0.06 0.01 0.00 0.00 0.00 0.01 0.00 0.01 0.01 0.02 0.02 0.06 0.16 0.19 0.17 0.21 0.22 0.12 0.10 0.11 0.16 0.23 0.25 0.18 0.25 0.46 0.23 0.28 0.37 0.11 0.27 0.15 0.27 0.14 0.15 0.24 0.39 0.31 0.32 0.16 0.08 0.13 0.05 0.01 0.02 0.01 0.01 0.01 0.00 0.00 0.00
0.00 0.00 0.00 0.00 0.00 0.00 0.00 0.00 0.00 0.00 0.00 0.00 0.00 0.00 0.00 0.00 0.00 0.00 0.00 0.00 0.00 0.00 0.00 0.04 0.05 0.03 0.06 0.05 0.06 0.17 0.39 0.31 0.34 0.34 0.71 0.64 0.54 0.29 0.27 0.32 0.45 0.35 0.34 0.35 0.14 0.02 0.00 0.00 0.00 0.00 0.00 0.00 0.00 0.00 0.01 0.01 0.03 0.01 0.03 0.08 0.18 0.16 0.22 0.20 0.22 0.21 0.16 0.20 0.32 0.27 0.17 0.33 0.29 0.19 0.28 0.10 0.20 0.41 0.38 0.67 0.35 0.40 0.52 0.60 0.56 0.31 0.11 0.07 0.06 0.08 0.02 0.01 0.03 0.01 0.00 0.00 0.00
0.00 0.00 0.00 0.00 0.00 0.00 0.00 0.00 0.00 0.00 0.00 0.00 0.00 0.00 0.00 0.00 0.00 0.00 0.00 0.00 0.00 0.00 0.01 0.01 0.03 0.02 0.06 0.03 0.09 0.03 0.12 0.18 0.24 0.82 1.01 0.87 1.04 1.09 0.78 0.77 1.08 1.02 0.84 0.33 0.25 0.16 0.14 0.00 0.00 0.00 0.00 0.00 0.00 0.00 0.00 0.00 0.00 0.01 0.01 0.03 0.03 0.18 0.24 0.16 0.11 0.11 0.21 0.24 0.26 0.15 0.20 0.15 0.44 0.48 0.61 0.19 0.19 0.25 0.94 1.44 0.61 0.35 0.37 0.42 0.51 0.32 0.21 0.04 0.06 0.03 0.01 0.00 0.01 0.02 0.00 0.00 0.00
0.00 0.00 0.00 0.00 0.00 0.00 0.00 0.00 0.00 0.00 0.00 0.00 0.00 0.00 0.00 0.00 0.00 0.00 0.00 0.00 0.00 0.00 0.00 0.00 0.00 0.07 0.06 0.03 0.09 0.20 0.20 0.27 0.92 1.09 0.59 0.60 0.82 1.10 1.14 0.88 1.63 2.18 0.53 0.55 0.27 0.17 0.13 0.00 0.00 0.00 0.00 0.00 0.00 0.00 0.00 0.00 0.00 0.00 0.01 0.01 0.05 0.13 0.13 0.13 0.09 0.17 0.14 0.08 0.18 0.29 0.13 0.10 0.23 0.87 0.76 0.50 0.28 0.53 0.60 1.31 1.28 0.58 0.44 0.43 0.48 0.52 0.35 0.04 0.11 0.04 0.03 0.00 0.03 0.01 0.00 0.01 0.00
0.00 0.00 0.00 0.00 0.00 0.00 0.00 0.00 0.00 0.00 0.00 0.00 0.00 0.00 0.00 0.00 0.00 0.00 0.00 0.00 0.00 0.00 0.00 0.00 0.01 0.02 0.02 0.03 0.02 0.08 0.13 0.40 1.41 0.97 0.39 0.37 0.95 0.67 1.24 1.05 0.98 0.36 0.20 0.09 0.05 0.02 0.01 0.01 0.00 0.00 0.00 0.00 0.00 0.00 0.00 0.00 0.00 0.00 0.01 0.01 0.07 0.09 0.07 0.33 0.19 0.18 0.16 0.12 0.09 0.06 0.08 0.09 0.42 0.49 0.69 0.81 0.67 0.95 2.02 1.07 0.77 0.78 0.90 0.52 0.50 0.43 0.33 0.14 0.13 0.05 0.10 0.03 0.06 0.05 0.03 0.00 0.00
0.00 0.00 0.00 0.00 0.00 0.00 0.00 0.00 0.00 0.00 0.00 0.00 0.00 0.00 0.00 0.00 0.00 0.00 0.00 0.00 0.00 0.00 0.00 0.00 0.02 0.01 0.02 0.01 0.01 0.10 0.22 1.15 0.97 0.35 0.75 0.67 0.29 0.28 0.48 0.35 0.19 0.17 0.09 0.04 0.03 0.02 0.01 0.00 0.00 0.00 0.00 0.00 0.00 0.00 0.00 0.00 0.00 0.00 0.01 0.01 0.03 0.09 0.18 0.31 0.23 0.27 0.14 0.03 0.05 0.05 0.14 0.12 0.17 0.60 0.76 1.31 0.39 1.32 1.68 1.11 0.81 0.63 0.92 0.63 0.52 0.51 0.43 0.20 0.32 0.39 0.11 0.02 0.08 0.03 0.01 0.01 0.00
0.00 0.00 0.00 0.00 0.00 0.00 0.00 0.00 0.00 0.00 0.00 0.00 0.00 0.00 0.00 0.00 0.00 0.00 0.00 0.00 0.00 0.00 0.01 0.01 0.04 0.01 0.02 0.02 0.04 0.07 0.33 1.13 0.63 0.68 0.45 0.70 0.40 0.42 0.20 0.41 0.39 0.26 0.06 0.03 0.01 0.00 0.00 0.00 0.00 0.00 0.00 0.00 0.00 0.00 0.00 0.00 0.00 0.00 0.00 0.00 0.01 0.00 0.02 0.03 0.12 0.07 0.08 0.48 0.68 0.46 0.14 0.14 0.23 0.37 1.23 0.80 0.92 0.97 0.96 1.07 1.48 1.25 1.72 0.96 1.41 1.17 0.95 0.60 0.46 0.58 0.21 0.14 0.06 0.07 0.01 0.01 0.00
0.00 0.00 0.00 0.00 0.00 0.00 0.00 0.00 0.00 0.00 0.00 0.00 0.00 0.00 0.00 0.00 0.00 0.00 0.00 0.00 0.00 0.00 0.01 0.04 0.09 0.03 0.04 0.01 0.02 0.07 0.20 0.48 0.71 0.42 0.85 0.36 0.66 0.60 0.40 0.19 0.15 0.15 0.05 0.01 0.01 0.00 0.00 0.00 0.00 0.00 0.00 0.00 0.00 0.00 0.00 0.00 0.00 0.00 0.00 0.00 0.00 0.00 0.00 0.00 0.01 0.05 0.07 0.07 0.08 0.13 0.34 0.50 0.52 0.68 0.81 1.22 1.04 0.84 0.95 0.75 1.45 1.81 1.80 1.39 1.58 1.68 0.92 0.50 0.65 0.42 0.69 0.28 0.11 0.04 0.03 0.02 0.03
0.00 0.00 0.00 0.00 0.00 0.00 0.00 0.00 0.00 0.00 0.00 0.00 0.00 0.00 0.00 0.00 0.00 0.00 0.00 0.00 0.00 0.00 0.01 0.01 0.02 0.04 0.06 0.02 0.04 0.07 0.04 0.07 0.03 0.08 0.03 0.20 0.23 0.39 0.26 0.03 0.07 0.08 0.03 0.04 0.00 0.00 0.00 0.00 0.00 0.00 0.00 0.00 0.00 0.00 0.00 0.00 0.00 0.00 0.00 0.00 0.00 0.00 0.00 0.00 0.00 0.01 0.02 0.09 0.05 0.11 0.11 0.17 0.15 0.60 0.49 0.59 1.24 1.47 1.18 1.29 1.31 1.34 1.39 0.93 0.80 0.54 0.41 0.53 1.06 0.47 0.73 0.50 0.25 0.22 0.12 0.08 0.09
0.00 0.00 0.00 0.00 0.00 0.00 0.00 0.00 0.00 0.00 0.00 0.00 0.00 0.00 0.00 0.00 0.00 0.00 0.00 0.00 0.00 0.00 0.01 0.02 0.01 0.05 0.12 0.06 0.01 0.05 0.05 0.04 0.01 0.02 0.02 0.04 0.03 0.05 0.04 0.04 0.03 0.01 0.00 0.02 0.00 0.00 0.00 0.00 0.00 0.00 0.00 0.00 0.00 0.00 0.00 0.00 0.00 0.00 0.00 0.00 0.00 0.00 0.00 0.00 0.00 0.00 0.00 0.01 0.02 0.03 0.06 0.10 0.07 0.06 0.18 0.21 0.46 0.90 0.93 0.85 1.25 1.01 0.37 0.89 0.89 0.57 0.36 0.25 0.68 0.68 1.07 0.43 0.52 0.43 0.83 0.59 0.98
0.00 0.00 0.00 0.00 0.00 0.00 0.00 0.00 0.00 0.00 0.00 0.00 0.00 0.00 0.00 0.00 0.00 0.00 0.00 0.00 0.00 0.00 0.00 0.01 0.01 0.04 0.10 0.08 0.02 0.02 0.06 0.06 0.01 0.00 0.02 0.01 0.02 0.02 0.02 0.02 0.03 0.02 0.03 0.01 0.00 0.00 0.00 0.00 0.00 0.00 0.00 0.00 0.00 0.00 0.00 0.00 0.00 0.00 0.00 0.00 0.00 0.00 0.00 0.00 0.00 0.00 0.00 0.00 0.01 0.01 0.01 0.02 0.05 0.08 0.03 0.06 0.14 0.29 0.64 0.72 1.31 0.91 0.99 1.07 0.85 0.85 0.65 0.60 0.27 1.11 1.10 0.86 0.76 0.92 0.97 1.00 0.97
0.00 0.00 0.00 0.00 0.00 0.00 0.00 0.00 0.00 0.00 0.00 0.00 0.00 0.00 0.00 0.00 0.00 0.00 0.00 0.00 0.00 0.01 0.00 0.01 0.01 0.02 0.01 0.00 0.01 0.05 0.04 0.05 0.02 0.01 0.00 0.02 0.02 0.00 0.02 0.00 0.01 0.00 0.00 0.01 0.00 0.00 0.00 0.00 0.00 0.00 0.00 0.00 0.00 0.00 0.00 0.00 0.00 0.00 0.00 0.00 0.00 0.00 0.00 0.00 0.00 0.00 0.00 0.00 0.01 0.00 0.01 0.00 0.01 0.01 0.02 0.02 0.05 0.05 0.05 0.16 0.68 0.88 1.37 0.89 1.08 0.98 1.40 0.88 0.95 1.24 1.17 0.85 1.09 0.80 0.40 0.93 0.60
0.00 0.00 0.00 0.00 0.00 0.00 0.00 0.00 0.00 0.00 0.00 0.00 0.00 0.00 0.00 0.00 0.00 0.00 0.00 0.00 0.00 0.00 0.00 0.01 0.01 0.01 0.01 0.00 0.00 0.02 0.04 0.05 0.00 0.00 0.00 0.01 0.00 0.02 0.01 0.00 0.00 0.00 0.00 0.00 0.00 0.00 0.00 0.00 0.00 0.00 0.00 0.00 0.00 0.00 0.00 0.00 0.00 0.00 0.00 0.00 0.00 0.00 0.00 0.00 0.00 0.00 0.00 0.00 0.00 0.00 0.00 0.00 0.00 0.00 0.00 0.00 0.00 0.01 0.02 0.03 0.03 0.11 0.57 0.88 0.97 0.97 0.85 1.26 0.66 0.65 0.23 0.50 0.79 1.02 0.60 0.64 0.88
0.00 0.00 0.00 0.00 0.00 0.00 0.00 0.00 0.00 0.00 0.00 0.00 0.00 0.00 0.00 0.00 0.00 0.00 0.00 0.00 0.00 0.00 0.00 0.00 0.01 0.01 0.01 0.01 0.02 0.02 0.02 0.02 0.01 0.00 0.00 0.00 0.02 0.03 0.06 0.03 0.00 0.00 0.00 0.00 0.00 0.00 0.00 0.00 0.00 0.00 0.00 0.00 0.00 0.00 0.00 0.00 0.00 0.00 0.00 0.00 0.00 0.00 0.00 0.00 0.00 0.00 0.00 0.00 0.00 0.00 0.00 0.00 0.00 0.00 0.00 0.00 0.00 0.00 0.00 0.01 0.02 0.06 0.07 0.18 0.56 0.33 0.42 1.19 0.85 0.67 0.62 0.80 0.55 1.23 1.07 0.94 0.91
0.00 0.00 0.00 0.00 0.00 0.00 0.00 0.00 0.00 0.00 0.00 0.00 0.00 0.00 0.00 0.00 0.00 0.00 0.00 0.00 0.00 0.00 0.00 0.00 0.00 0.00 0.00 0.00 0.00 0.01 0.01 0.02 0.00 0.00 0.02 0.00 0.02 0.03 0.08 0.04 0.04 0.00 0.00 0.00 0.00 0.00 0.00 0.00 0.00 0.00 0.00 0.00 0.00 0.00 0.00 0.00 0.00 0.00 0.00 0.00 0.00 0.00 0.00 0.00 0.00 0.00 0.00 0.00 0.00 0.00 0.00 0.00 0.00 0.00 0.00 0.00 0.00 0.00 0.00 0.00 0.01 0.03 0.05 0.10 0.07 0.11 0.06 0.77 0.92 1.46 0.78 0.97 1.97 1.09 0.78 1.23 0.91
0.00 0.00 0.00 0.00 0.00 0.00 0.01 0.00 0.00 0.00 0.00 0.00 0.00 0.00 0.01 0.00 0.00 0.00 0.00 0.00 0.00 0.00 0.00 0.00 0.00 0.00 0.00 0.00 0.00 0.00 0.01 0.03 0.00 0.00 0.01 0.00 0.00 0.05 0.02 0.03 0.02 0.00 0.00 0.00 0.00 0.00 0.00 0.00 0.00 0.00 0.00 0.00 0.00 0.00 0.00 0.00 0.00 0.00 0.00 0.00 0.00 0.00 0.00 0.00 0.00 0.00 0.00 0.00 0.00 0.00 0.00 0.00 0.00 0.00 0.00 0.00 0.00 0.00 0.00 0.00 0.00 0.01 0.02 0.04 0.08 0.30 0.20 0.09 0.30 0.98 0.76 0.99 1.08 1.58 0.63 0.90 2.22
0.00 0.00 0.00 0.00 0.00 0.00 0.00 0.03 0.00 0.00 0.00 0.00 0.00 0.00 0.00 0.00 0.00 0.00 0.00 0.00 0.00 0.00 0.00 0.00 0.00 0.00 0.00 0.00 0.00 0.01 0.00 0.00 0.01 0.01 0.01 0.02 0.00 0.00 0.00 0.03 0.01 0.03 0.00 0.00 0.00 0.00 0.00 0.00 0.00 0.00 0.00 0.00 0.00 0.00 0.00 0.00 0.00 0.00 0.00 0.00 0.00 0.00 0.00 0.00 0.00 0.00 0.00 0.00 0.00 0.00 0.00 0.00 0.00 0.00 0.00 0.00 0.00 0.00 0.00 0.00 0.00 0.00 0.01 0.01 0.02 0.03 0.07 0.13 0.05 0.13 0.35 0.57 0.80 0.81 1.15 1.13 1.17
0.00 0.00 0.00 0.00 0.00 0.00 0.00 0.00 0.00 0.00 0.01 0.00 0.00 0.00 0.00 0.00 0.00 0.00 0.00 0.00 0.00 0.00 0.00 0.00 0.00 0.00 0.00 0.00 0.00 0.00 0.00 0.00 0.03 0.01 0.01 0.00 0.00 0.00 0.00 0.03 0.02 0.00 0.01 0.00 0.00 0.00 0.00 0.00 0.00 0.00 0.00 0.00 0.00 0.00 0.00 0.00 0.00 0.00 0.00 0.00 0.00 0.00 0.00 0.00 0.00 0.00 0.00 0.00 0.00 0.00 0.00 0.00 0.00 0.00 0.00 0.00 0.00 0.00 0.00 0.00 0.00 0.00 0.00 0.00 0.00 0.00 0.00 0.01 0.03 0.04 0.18 0.12 0.56 0.52 0.32 0.77 0.54
0.00 0.02 0.00 0.00 0.00 0.00 0.00 0.00 0.00 0.00 0.00 0.04 0.00 0.01 0.00 0.00 0.00 0.00 0.00 0.00 0.00 0.00 0.00 0.00 0.00 0.00 0.00 0.00 0.00 0.00 0.00 0.00 0.01 0.01 0.00 0.01 0.05 0.04 0.01 0.01 0.06 0.00 0.01 0.00 0.00 0.00 0.00 0.00 0.00 0.00 0.00 0.00 0.00 0.00 0.00 0.00 0.00 0.00 0.00 0.00 0.00 0.00 0.00 0.00 0.00 0.00 0.00 0.00 0.00 0.00 0.00 0.00 0.00 0.00 0.00 0.00 0.00 0.00 0.00 0.00 0.00 0.00 0.00 0.00 0.00 0.00 0.00 0.00 0.00 0.01 0.04 0.03 0.03 0.22 0.16 0.38 0.46
0.01 0.01 0.00 0.00 0.00 0.00 0.00 0.00 0.00 0.01 0.00 0.00 0.00 0.00 0.00 0.00 0.03 0.00 0.00 0.00 0.00 0.00 0.00 0.00 0.00 0.00 0.00 0.00 0.00 0.00 0.00 0.00 0.00 0.00 0.01 0.03 0.02 0.02 0.01 0.08 0.03 0.01 0.05 0.03 0.00 0.00 0.00 0.00 0.00 0.00 0.00 0.00 0.00 0.00 0.00 0.00 0.00 0.00 0.00 0.00 0.00 0.00 0.00 0.00 0.00 0.00 0.00 0.00 0.00 0.00 0.00 0.00 0.00 0.00 0.00 0.00 0.00 0.00 0.00 0.00 0.00 0.00 0.00 0.00 0.00 0.00 0.00 0.00 0.00 0.00 0.00 0.01 0.01 0.03 0.03 0.06 0.16
0.01 0.00 0.00 0.00 0.00 0.01 0.00 0.00 0.00 0.01 0.00 0.01 0.00 0.00 0.00 0.00 0.01 0.00 0.00 0.00 0.00 0.00 0.00 0.00 0.00 0.00 0.00 0.00 0.00 0.00 0.00 0.00 0.00 0.00 0.00 0.00 0.01 0.00 0.01 0.02 0.05 0.03 0.03 0.02 0.00 0.04 0.00 0.02 0.03 0.00 0.00 0.00 0.00 0.00 0.00 0.00 0.00 0.00 0.00 0.00 0.00 0.00 0.00 0.00 0.00 0.00 0.00 0.00 0.00 0.00 0.00 0.00 0.00 0.00 0.00 0.00 0.00 0.00 0.00 0.00 0.00 0.00 0.00 0.00 0.00 0.00 0.00 0.00 0.00 0.00 0.00 0.00 0.00 0.03 0.00 0.01 0.02
0.00 0.00 0.00 0.00 0.00 0.00 0.00 0.00 0.00 0.04 0.00 0.00 0.00 0.07 0.01 0.02 0.01 0.00 0.00 0.00 0.01 0.02 0.02 0.00 0.00 0.00 0.00 0.00 0.00 0.00 0.00 0.00 0.00 0.00 0.00 0.00 0.00 0.01 0.01 0.00 0.04 0.04 0.04 0.17 0.28 0.22 0.41 0.53 0.27 0.03 0.00 0.00 0.00 0.00 0.00 0.00 0.00 0.00 0.00 0.00 0.00 0.00 0.00 0.00 0.00 0.00 0.00 0.00 0.00 0.00 0.00 0.00 0.00 0.00 0.00 0.00 0.00 0.00 0.00 0.00 0.00 0.00 0.00 0.00 0.00 0.00 0.00 0.00 0.00 0.00 0.00 0.00 0.00 0.00 0.02 0.04 0.03
0.00 0.00 0.00 0.00 0.00 0.01 0.00 0.00 0.01 0.02 0.00 0.00 0.01 0.00 0.00 0.02 0.05 0.01 0.01 0.00 0.00 0.00 0.00 0.00 0.00 0.00 0.00 0.00 0.00 0.00 0.00 0.00 0.00 0.00 0.00 0.00 0.00 0.00 0.00 0.01 0.05 0.03 0.09 0.13 0.52 0.85 0.88 0.72 0.43 0.00 0.00 0.00 0.00 0.00 0.00 0.00 0.00 0.00 0.00 0.00 0.00 0.00 0.00 0.00 0.00 0.00 0.00 0.00 0.00 0.00 0.00 0.00 0.00 0.00 0.00 0.00 0.00 0.00 0.00 0.00 0.00 0.00 0.00 0.00 0.00 0.00 0.00 0.00 0.00 0.00 0.00 0.00 0.00 0.00 0.00 0.00 0.03
0.00 0.00 0.02 0.00 0.02 0.00 0.00 0.03 0.03 0.03 0.00 0.01 0.01 0.00 0.02 0.02 0.01 0.01 0.01 0.00 0.00 0.01 0.00 0.00 0.00 0.00 0.00 0.00 0.00 0.00 0.00 0.00 0.00 0.00 0.00 0.00 0.00 0.00 0.00 0.00 0.00 0.01 0.01 0.13 0.73 1.17 1.31 1.35 0.25 0.07 0.01 0.01 0.00 0.00 0.00 0.00 0.00 0.00 0.00 0.00 0.00 0.00 0.00 0.00 0.00 0.00 0.00 0.00 0.00 0.00 0.00 0.00 0.00 0.00 0.00 0.00 0.00 0.00 0.00 0.00 0.00 0.00 0.00 0.00 0.00 0.00 0.00 0.00 0.00 0.00 0.00 0.00 0.00 0.00 0.00 0.00 0.00
0.00 0.00 0.01 0.18 0.05 0.02 0.03 0.04 0.01 0.01 0.00 0.02 0.00 0.00 0.00 0.00 0.00 0.00 0.00 0.00 0.00 0.00 0.00 0.00 0.00 0.00 0.00 0.00 0.00 0.00 0.00 0.00 0.00 0.00 0.00 0.00 0.00 0.00 0.00 0.00 0.00 0.00 0.00 0.24 0.80 0.65 0.70 0.55 0.34 0.12 0.02 0.02 0.01 0.00 0.00 0.00 0.00 0.00 0.00 0.00 0.00 0.00 0.00 0.00 0.00 0.00 0.00 0.00 0.00 0.00 0.00 0.00 0.00 0.00 0.00 0.00 0.00 0.00 0.00 0.00 0.00 0.00 0.00 0.00 0.00 0.00 0.00 0.00 0.00 0.00 0.00 0.00 0.00 0.00 0.00 0.00 0.00
0.00 0.01 0.13 0.01 0.04 0.01 0.01 0.03 0.01 0.02 0.02 0.01 0.03 0.00 0.00 0.01 0.01 0.00 0.00 0.00 0.00 0.00 0.00 0.00 0.00 0.00 0.00 0.00 0.00 0.00 0.00 0.00 0.00 0.00 0.00 0.00 0.00 0.00 0.00 0.00 0.00 0.00 0.00 0.08 0.02 0.09 0.12 0.40 1.05 0.94 0.44 0.10 0.01 0.02 0.00 0.00 0.00 0.00 0.00 0.00 0.00 0.00 0.00 0.00 0.00 0.00 0.00 0.00 0.00 0.00 0.00 0.00 0.00 0.00 0.00 0.00 0.00 0.00 0.00 0.00 0.00 0.00 0.00 0.00 0.00 0.00 0.00 0.00 0.00 0.00 0.00 0.00 0.00 0.00 0.00 0.00 0.00
0.01 0.00 0.01 0.07 0.06 0.03 0.01 0.04 0.01 0.00 0.04 0.04 0.01 0.00 0.00 0.00 0.11 0.00 0.00 0.00 0.00 0.00 0.00 0.00 0.00 0.00 0.00 0.00 0.00 0.00 0.00 0.00 0.00 0.03 0.06 0.00 0.00 0.00 0.00 0.00 0.00 0.00 0.01 0.00 0.00 0.03 0.23 0.66 1.56 1.64 0.89 0.53 0.08 0.01 0.00 0.00 0.00 0.00 0.00 0.00 0.00 0.00 0.00 0.00 0.00 0.00 0.00 0.00 0.00 0.00 0.00 0.00 0.00 0.00 0.00 0.00 0.00 0.00 0.00 0.00 0.00 0.00 0.00 0.00 0.00 0.00 0.00 0.00 0.00 0.00 0.00 0.00 0.00 0.00 0.00 0.00 0.00
0.01 0.00 0.00 0.04 0.00 0.00 0.03 0.04 0.01 0.00 0.01 0.00 0.00 0.00 0.06 0.12 0.06 0.00 0.00 0.00 0.00 0.00 0.00 0.00 0.00 0.00 0.00 0.00 0.00 0.00 0.02 0.06 0.23 0.20 0.17 0.20 0.09 0.02 0.00 0.00 0.00 0.00 0.00 0.00 0.00 0.08 0.63 0.92 1.59 1.36 0.92 0.73 0.54 0.19 0.10 0.04 0.06 0.01 0.04 0.03 0.00 0.00 0.00 0.00 0.00 0.00 0.00 0.00 0.00 0.00 0.00 0.00 0.00 0.00 0.00 0.00 0.00 0.00 0.00 0.00 0.00 0.00 0.00 0.00 0.00 0.00 0.00 0.00 0.00 0.00 0.00 0.00 0.00 0.00 0.00 0.00 0.00
0.05 0.00 0.01 0.02 0.02 0.00 0.02 0.00 0.00 0.00 0.00 0.00 0.00 0.01 0.01 0.02 0.00 0.00 0.01 0.00 0.00 0.00 0.00 0.00 0.01 0.00 0.00 0.00 0.00 0.03 0.06 0.17 0.24 0.15 0.23 0.38 0.37 0.18 0.06 0.23 0.15 0.02 0.02 0.01 0.00 0.11 0.62 1.30 1.57 0.71 0.90 0.69 0.54 0.38 0.22 0.12 0.04 0.08 0.03 0.06 0.03 0.00 0.00 0.00 0.00 0.00 0.00 0.00 0.00 0.00 0.00 0.00 0.00 0.00 0.00 0.00 0.00 0.00 0.00 0.00 0.00 0.00 0.00 0.00 0.00 0.00 0.00 0.00 0.00 0.00 0.00 0.00 0.00 0.00 0.00 0.00 0.00
0.00 0.02 0.02 0.00 0.00 0.00 0.01 0.04 0.05 0.00 0.03 0.00 0.00 0.00 0.03 0.01 0.04 0.00 0.00 0.00 0.00 0.00 0.00 0.00 0.00 0.02 0.02 0.03 0.06 0.10 0.33 0.36 0.11 0.14 0.41 0.37 0.33 0.37 0.22 0.18 0.05 0.02 0.00 0.00 0.00 0.02 0.01 0.80 0.79 0.76 1.01 0.40 0.19 0.52 0.39 0.20 0.03 0.02 0.02 0.05 0.05 0.00 0.00 0.00 0.01 0.01 0.00 0.04 0.00 0.00 0.00 0.00 0.00 0.00 0.00 0.00 0.00 0.00 0.00 0.00 0.00 0.00 0.00 0.00 0.00 0.00 0.00 0.00 0.00 0.00 0.00 0.00 0.00 0.00 0.00 0.00 0.00
0.00 0.00 0.00 0.00 0.04 0.03 0.04 0.00 0.00 0.00 0.00 0.02 0.00 0.01 0.01 0.02 0.05 0.01 0.01 0.01 0.01 0.00 0.00 0.00 0.00 0.01 0.01 0.00 0.00 0.01 0.02 0.03 0.05 0.09 0.05 0.23 0.27 0.16 0.02 0.00 0.01 0.00 0.00 0.00 0.00 0.01 0.03 0.90 0.51 1.02 0.74 0.53 0.93 0.46 0.27 0.41 0.34 0.07 0.02 0.01 0.02 0.01 0.01 0.00 0.01 0.04 0.03 0.02 0.00 0.00 0.00 0.00 0.00 0.00 0.00 0.00 0.00 0.00 0.00 0.00 0.00 0.00 0.00 0.00 0.00 0.00 0.00 0.00 0.00 0.00 0.00 0.00 0.00 0.00 0.00 0.00 0.00
0.00 0.00 0.00 0.00 0.00 0.00 0.04 0.02 0.07 0.01 0.02 0.01 0.01 0.01 0.02 0.01 0.05 0.01 0.00 0.00 0.00 0.00 0.00 0.00 0.00 0.01 0.00 0.00 0.00 0.00 0.00 0.01 0.00 0.00 0.01 0.02 0.01 0.03 0.03 0.01 0.01 0.01 0.01 0.00 0.00 0.00 0.00 0.02 0.09 0.64 0.44 0.28 0.44 0.46 0.61 0.56 0.22 0.07 0.02 0.01 0.02 0.00 0.00 0.00 0.01 0.00 0.01 0.05 0.03 0.01 0.00 0.00 0.00 0.00 0.00 0.00 0.00 0.00 0.00 0.00 0.00 0.00 0.00 0.00 0.00 0.00 0.00 0.00 0.00 0.00 0.00 0.00 0.00 0.00 0.00 0.00 0.00
0.01 0.00 0.00 0.00 0.00 0.01 0.00 0.02 0.01 0.06 0.10 0.01 0.04 0.02 0.06 0.08 0.02 0.01 0.03 0.01 0.02 0.00 0.01 0.02 0.00 0.00 0.00 0.00 0.00 0.00 0.00 0.00 0.00 0.00 0.00 0.00 0.00 0.00 0.01 0.01 0.01 0.01 0.00 0.00 0.01 0.00 0.00 0.00 0.00 0.02 0.10 0.20 0.43 0.24 0.36 0.59 0.19 0.15 0.08 0.02 0.05 0.06 0.05 0.04 0.02 0.01 0.01 0.01 0.08 0.01 0.00 0.00 0.00 0.00 0.01 0.00 0.01 0.00 0.00 0.00 0.00 0.00 0.00 0.00 0.00 0.00 0.00 0.00 0.00 0.00 0.00 0.00 0.00 0.00 0.00 0.00 0.00
0.00 0.00 0.06 0.02 0.09 0.05 0.02 0.01 0.00 0.04 0.02 0.01 0.01 0.01 0.08 0.07 0.01 0.00 0.01 0.01 0.01 0.00 0.01 0.04 0.00 0.00 0.00 0.00 0.00 0.00 0.00 0.00 0.00 0.00 0.00 0.00 0.00 0.00 0.00 0.00 0.00 0.02 0.05 0.05 0.04 0.02 0.00 0.00 0.01 0.01 0.01 0.03 0.09 0.15 0.14 0.07 0.18 0.26 0.10 0.10 0.04 0.03 0.03 0.01 0.01 0.06 0.10 0.03 0.04 0.03 0.02 0.01 0.01 0.01 0.00 0.01 0.00 0.00 0.00 0.00 0.00 0.00 0.00 0.00 0.00 0.00 0.00 0.00 0.00 0.00 0.00 0.00 0.00 0.00 0.00 0.00 0.00